Lid_Strength_Index
5 4 4 4 5 5 6 6 6 5 4 3 2 2 2 2 2 2 3 1 5 8 7 6 6 8 8 8 10 7 7 7 8 12 12 13 13 11 12 13 12 12 14 14 13 14 16 7 7 11 8 6 6 5
4 4 4 4 4 5 6 6 6 6 5 3 3 2 2 2 2 2 4 2 3 7 6 4 4 4 5 5 6 7 7 8 8 11 10 11 13 12 13 16 10 15 12 13 11 14 8 6 6 5 5 6 5 5
4 4 4 4 4 4 5 5 6 5 6 5 3 2 2 2 2 2 3 3 4 7 6 4 5 3 2 3 3 8 6 5 6 5 8 10 13 10 14 14 12 9 7 11 10 8 7 7 6 5 5 5 4 4
4 4 4 4 4 4 4 4 5 5 5 5 4 2 2 3 2 2 3 3 4 6 10 6 2 3 1 2 3 4 4 4 3 5 8 10 11 8 12 11 12 10 9 10 9 7 7 7 7 6 5 4 4 4
5 4 4 4 4 4 3 4 4 4 5 5 5 3 2 2 2 2 3 3 3 6 8 7 4 2 2 2 3 4 5 5 6 8 8 10 7 7 7 9 10 8 9 11 12 7 7 7 6 6 6 6 5 5
5 5 4 3 3 3 3 4 4 4 5 5 5 5 3 2 2 2 4 2 2 4 8 10 3 4 3 2 3 4 4 5 5 7 8 6 5 7 10 10 7 6 6 6 7 5 6 6 5 5 6 6 5 5
5 5 5 3 3 3 3 3 4 3 4 5 5 5 5 3 2 3 4 2 3 4 8 9 7 3 3 3 3 4 3 4 5 6 7 7 7 6 9 10 7 6 6 6 5 5 6 6 6 6 6 6 5 4
6 5 5 4 3 3 3 3 4 3 4 5 5 5 4 5 4 3 1 3 3 4 6 10 8 6 3 5 6 2 6 5 6 7 6 8 7 8 11 8 7 7 7 7 5 6 5 5 5 6 5 5 6 5
6 5 5 4 4 3 3 3 3 3 4 5 5 5 4 4 5 4 2 2 2 4 8 9 10 12 3 4 4 5 3 9 4 8 8 8 10 12 9 8 8 7 8 8 7 7 6 6 6 6 6 6 6 6
6 5 5 4 4 3 3 3 3 3 4 4 4 5 6 5 5 4 4 6 6 5 5 8 5 9 5 6 6 6 4 7 10 8 6 9 11 7 6 5 6 5 5 6 7 7 7 6 6 6 6 5 6 6
6 5 5 4 4 3 3 3 3 3 3 4 6 7 6 5 6 6 8 8 7 9 6 6 6 8 4 9 9 6 8 6 11 9 10 10 10 7 5 5 5 5 5 5 5 5 5 5 5 5 5 5 5 5
7 6 5 5 5 3 3 3 4 3 4 5 6 6 7 8 7 9 9 8 8 8 6 7 6 5 5 5 8 7 9 8 12 6 10 11 8 5 5 6 5 5 5 5 4 5 4 4 5 5 5 5 5 4
7 6 6 5 4 4 3 3 4 4 4 3 7 8 7 6 12 11 13 10 10 7 5 5 6 5 5 5 7 8 12 11 7 10 11 8 6 5 4 4 5 4 5 4 5 4 4 4 4 4 4 4 4 3
6 6 5 5 4 4 5 4 4 4 4 6 8 11 9 9 8 8 8 8 6 6 6 5 5 7 6 8 7 11 8 8 13 14 13 8 6 5 4 4 4 5 5 5 5 4 5 4 4 3 3 3 3 3
6 6 6 5 5 5 5 4 4 4 5 8 7 11 8 6 5 4 5 6 6 4 6 6 6 6 7 9 8 9 12 14 12 12 8 6 5 4 4 4 4 4 5 5 4 4 4 4 4 3 3 2 2 3
6 5 5 5 5 4 5 3 3 4 6 7 6 8 6 6 6 5 5 6 5 5 5 6 7 9 9 8 11 12 13 15 12 10 5 4 4 4 4 3 3 3 4 4 4 4 3 4 4 3 2 2 2 2
7 6 5 4 4 4 4 5 5 8 8 7 8 5 5 5 6 6 5 5 3 5 8 7 11 11 7 10 12 11 13 10 7 5 3 4 4 4 3 3 3 3 3 3 4 4 3 3 4 4 4 4 4 3
7 5 4 4 4 5 5 5 6 7 9 6 7 5 4 4 5 5 4 3 4 5 6 9 6 9 11 13 11 9 7 5 4 4 3 3 2 3 3 3 2 3 3 3 3 4 4 4 4 4 4 4 5 5
6 5 5 4 4 6 7 6 5 9 8 5 5 4 4 4 3 3 3 3 3 3 4 6 9 9 8 7 7 6 5 4 5 3 3 3 2 3 3 3 3 2 2 3 3 3 3 2 3 3 4 3 4 4
5 5 4 4 5 7 8 6 4 7 8 5 4 5 5 4 3 3 4 4 4 5 6 7 7 6 6 5 4 4 4 3 4 5 4 3 2 2 2 3 3 3 3 2 2 4 2 3 2 2 3 4 5 4
5 4 5 5 6 7 8 6 7 7 6 6 5 5 5 4 5 5 5 4 5 6 7 5 5 4 3 3 2 3 4 3 4 4 4 4 2 2 2 2 2 3 3 3 3 3 3 3 2 2 2 2 4 5
6 5 6 5 8 8 9 6 6 6 7 6 6 5 6 7 7 6 4 6 6 5 4 4 4 4 4 3 3 3 3 3 3 4 8 6 4 3 3 3 3 3 3 3 3 3 2 2 2 2 2 3 3 4
6 6 8 8 10 10 10 6 8 7 9 8 6 8 7 6 6 5 7 5 5 3 3 3 3 3 4 4 3 3 3 3 4 4 4 3 2 2 2 2 2 3 3 3 2 2 2 5 2 2 2 2 2 3
5 8 10 11 11 12 8 9 8 8 7 8 8 9 7 6 5 7 8 6 5 3 3 4 3 4 4 4 5 4 3 2 3 3 3 3 4 3 3 3 2 2 2 2 1 1 2 2 4 2 2 3 2 3
9 10 10 13 10 11 11 11 9 9 10 8 9 9 7 5 8 9 9 5 5 4 4 4 4 3 4 4 4 3 2 2 3 4 3 3 3 4 3 2 2 1 1 2 2 2 2 2 2 2 2 2 3 3
12 9 11 11 10 10 9 11 10 9 8 9 9 7 5 7 9 10 8 5 5 4 4 4 4 4 5 4 5 4 3 2 2 3 3 3 3 3 4 4 3 2 0 1 1 2 2 2 2 3 3 3 6 3
12 11 8 5 6 7 8 7 6 8 9 9 8 8 8 11 10 7 5 4 4 4 3 3 3 4 4 5 3 3 2 2 2 3 2 2 2 1 2 3 3 1 0 0 1 1 2 2 2 2 2 3 3 4
9 8 10 8 8 7 10 8 9 9 8 6 7 10 10 9 8 5 4 3 3 3 4 3 3 3 3 3 3 2 2 2 2 2 2 2 1 1 1 0 0 8 0 0 0 0 1 1 1 2 3 3 4 4
10 8 8 10 9 9 9 9 9 7 5 6 8 8 7 4 3 4 4 3 3 4 5 4 4 3 3 2 2 2 2 3 3 4 4 4 3 2 1 0 0 0 0 2 9 5 2 2 1 1 2 2 2 3
9 7 9 9 11 11 8 7 7 5 5 5 6 6 5 4 3 2 3 4 4 5 4 4 4 4 4 4 4 4 2 1 1 2 3 3 2 1 1 1 1 0 -0 0 1 2 8 3 4 2 3 3 3 4
6 7 9 8 9 8 7 6 6 5 6 6 5 6 6 5 4 4 6 5 4 4 4 5 4 4 4 4 4 4 5 3 3 2 1 1 1 1 1 1 -0 -0 0 -0 0 1 2 2 3 3 4 4 5 5
8 8 8 9 8 5 5 6 6 6 6 6 7 6 6 7 7 7 8 7 8 7 8 7 6 7 5 5 4 4 6 4 3 3 3 3 2 2 1 1 0 0 1 1 2 2 2 3 3 4 5 5 5 5
9 8 8 8 8 7 6 6 7 7 6 7 6 6 6 7 10 9 7 8 9 8 9 9 9 8 8 7 6 6 6 6 8 9 9 9 8 5 2 1 1 2 2 2 3 3 4 4 5 5 5 6 6 6